Location: Bothwell
(42.3833°S, 147.0000°E)
Time: 20:54:38
(UTC+11:00)

BEESAT - Pass Details

Date: 28 September 2022
Orbit: 699 x 706 km, 98.5° (Epoch: 25 November)

Event Time Altitude Azimuth Distance (km) Brightness Sun altitude
Exits shadow 19:19:41 14° 45° (NE) 1,946 ? -12.6°
Maximum altitude 19:23:31 41° 111° (ESE) 1,040 ? -13.3°
Drops below altitude 10° 19:28:02 10° 179° (S) 2,212 ? -14.1°
Sets 19:30:25 0° 186° (S) 3,140 ? -14.5°
